Regional Weather Roundup
Issued by NWS Wakefield, VA

Home | Current Version | Previous Version | Graphics & Text | Print | Product List | Glossary On
Versions: 1 2 3 4 5 6 7 8 9 10 11 12 13 14 15 16 17 18 19 20 21 22 23 24 25 26 27 28 29 30 31 32 33 34 35 36 37 38 39 40 41 42 43 44 45 46 47 48 49 50
000
ASUS41 KAKQ 010410
RWRAKQ

REGIONAL WEATHER ROUNDUP
NATIONAL WEATHER SERVICE WAKEFIELD VA
1200 AM EDT FRI AUG 01 2014

Note: "fair" indicates few or no clouds below 12,000 feet with no
significant weather and/or obstructions to visibility. * = Denotes
station may not report precipitation (e.g., rain,snow,etc.),
thunder or fog.

VAZ042-051-052>054-056-010500-
NORTHERN VIRGINIA

CITY           SKY/WX    TMP DP  RH WIND       PRES   REMARKS
WASH NATIONAL  MOCLDY    77  65  66 S6        30.14R
DULLES         PTCLDY    72  64  76 S6        30.14R
FORT BELVOIR   MOCLDY    68  65  92 SE1       30.14R
QUANTICO       MOCLDY    76  67  73 SW6       30.14S
FREDERICKSBRG* CLOUDY    72  67  84 CALM      30.14R
STAFFORD*      CLOUDY    67  67 100 CALM      30.18R
WARRENTON      MOCLDY    73  70  92 S3        30.14R
CULPEPER*      MOCLDY   N/A N/A N/A CALM      30.14R
MANASSAS*      MOCLDY    70  68  94 CALM      30.14R
LEESBURG*      PTCLDY    70  66  88 CALM      30.14S
WINCHESTER     PTCLDY    64  63  94 CALM      30.13S
$$

VAZ048-049-060>072-079>083-010500-
CENTRAL AND SOUTH CENTRAL VIRGINIA...AND NORTH CENTRAL NORTH CAROLINA

CITY           SKY/WX    TMP DP  RH WIND       PRES   REMARKS
RICHMOND       CLOUDY    75  68  78 S5        30.15R
CHESTERFIELD*  CLOUDY    72  61  68 CALM      30.17R
HANOVER        CLOUDY    71  66  84 CALM      30.17R
TAPPAHANNOCK*  CLOUDY    70  66  86 CALM      30.16R
CHARLOTTSVILLE CLOUDY    72  65  78 S6        30.14S
ORANGE*        CLOUDY    70  64  83 CALM      30.16R
LOUISA*        CLOUDY    72  66  83 S3        30.14S
FARMVILLE*     CLOUDY    70  63  78 CALM      30.14R
SOUTH HILL*    CLOUDY    73  73 100 CALM      30.21S
ROANOKE RAPIDS CLOUDY    73  68  83 CALM      30.16R
RALEIGH        LGT RAIN  70  67  90 CALM      30.17S
$$

VAZ088>098-010500-
SOUTHEAST VIRGINIA

CITY           SKY/WX    TMP DP  RH WIND       PRES   REMARKS
NORFOLK        CLOUDY    75  64  68 S6        30.16S
VIRGINIA BEACH CLOUDY    75  64  68 SE8       30.16R
NORFOLK NAVAL  CLOUDY    76  64  66 SE6       30.17S
WEST POINT*    MOCLDY    75  69  80 SE5       30.17R
NEWPORT NEWS   CLOUDY    78  65  63 S5        30.16R
LANGLEY AFB    CLOUDY    75  65  71 S6        30.16R
FORT EUSTIS    CLOUDY    75  66  73 S7        30.14S
WILLIAMSBURG*  CLOUDY    79  66  65 S8        30.17R
FRANKLIN*      CLOUDY    73  66  78 S3        30.16R
WAKEFIELD      CLOUDY    74  66  76 CALM      30.16R
$$

VAZ020-022-025-037-045-010500-
WESTERN AND SOUTHWEST VIRGINIA

CITY           SKY/WX    TMP DP  RH WIND       PRES   REMARKS
STAUNTON*      CLOUDY    68  62  81 CALM      30.19S
HOT SPRINGS VA DRIZZLE   59  55  88 S6        30.29S
LYNCHBURG      CLOUDY    66  66 100 CALM      30.19R
DANVILLE       LGT RAIN  72  68  87 CALM      30.17R
MARTINSVILLE   LGT RAIN  67  67  98 CALM      30.21R
ROANOKE        CLOUDY    71  61  70 NE3       30.20R
BLACKSBURG     CLOUDY    64  64 100 CALM        N/A
DUBLIN*        CLOUDY    67  61  82 CALM      30.23S
MARION*        CLOUDY    64  60  87 CALM      30.24S
HILLSVILLE*    CLOUDY    63  58  83 CALM      30.23S
RICHLANDS*     CLOUDY    68  61  77 SE5       30.20S
WISE*          CLOUDY    66  55  68 CALM      30.21S
ABINGDON*      CLOUDY    68  61  78 E5        30.18S
$$

MDZ021>025-VAZ099-100-010500-
SOUTHERN MARYLAND AND THE DELMARVA PENINSULA

CITY           SKY/WX    TMP DP  RH WIND       PRES   REMARKS
PATUXENT RIVER MOCLDY    73  67  81 S5        30.15R
BAY BRIDGE APT   N/A     75  72  88 S6        30.14R
LEONARDTOWN    MOCLDY    72  64  78 S3        30.17R
DOVER          MOCLDY    70  67  89 S7        30.13R
GEORGETOWN     PTCLDY    71  66  84 S14       30.16S
EASTON         MOCLDY    76  71  86 S6        30.18R
CAMBRIDGE      MOCLDY    72  68  88 CALM      30.15R
SALISBURY      PTCLDY    72  66  81 S5        30.17R
OCEAN CITY     CLEAR     74  69  85 SW5       30.17R
WALLOPS ISLAND CLEAR     74  68  81 S8        30.17R
ACCOMACK*        N/A     72  64  78 S6        30.16R
$$

NCZ012>017-030>032-010500-
EASTERN NORTH CAROLINA

CITY           SKY/WX    TMP DP  RH WIND       PRES   REMARKS
ELIZABETH CITY CLOUDY    75  64  68 SE6       30.17R
AHOSKIE*       CLOUDY    72  66  82 S3        30.17R
EDENTON*       CLOUDY    74  65  71 SE5       30.17R
CURRITUCK*     NOT AVBL
KILL DEVIL HLS CLOUDY    76  67  72 E3        30.15F
MANTEO         NOT AVBL
CAPE HATTERAS  CLOUDY    79  66  64 E10       30.16R
GOLDSBORO      NOT AVBL
WASHINGTON     CLOUDY    71  65  82 NE3       30.16R
GREENVILLE     CLOUDY    73  68  83 CALM      30.17R
NEW BERN       CLOUDY    77  68  73 E5        30.16R
WILMINGTON     CLOUDY    80  70  71 E8        30.11S
$$

VAZ048-010500-
ELSEWHERE

CITY           SKY/WX    TMP DP  RH WIND       PRES   REMARKS
HARRISBURG PA  PTCLDY    69  62  78 E3        30.11S
BALTIMORE      MOCLDY    74  64  71 S3        30.13R
ANNAPOLIS      MOCLDY    75  66  73 S6        30.13S
ANDREWS AFB    MOCLDY    72  66  82 S6        30.14R
WILMINGTON DE  MOCLDY    75  66  73 S7        30.14S
PHILADELPHIA   MOCLDY    74  67  78 S5        30.15R
WILDWOOD NJ*   PTCLDY    72  64  78 S10       30.17S
ATLANTIC CITY  MOCLDY    71  67  87 MISG      30.16R
HENDERSON NC   DRIZZLE   72  68  88 CALM      30.17R
GREENSBORO     LGT RAIN  68  67  96 SE8       30.17S FOG
ROCKY MOUNT    CLOUDY    73  68  84 CALM      30.16R
FAYETTEVILLE   CLOUDY    73  70  90 NE6       30.12S
CHARLOTTE      LGT RAIN  70  65  84 NE6       30.14F
$$

VAZ100-010500-
MARINE

STATION/POSITION TIME  TEMP    WIND        PRES    WAVE   SWELL
                       AIR SEA DIR/SP/G            HT/PER HT/PER
                 (UTC) (F)     (DEG/KT/KT) (MB)    (FT/S) (FT/S)
44066 TX TWR #4  0400   74 75  200/ 12/ 14 1021.9R   3/ 7   2/ 7
CAPE MAY NJ      0400   72 77  160/  7/  9 1020.7R
LEWES DE         0400   73 72  190/  5/  8 1020.8R
15NM E FENWICK I 0400   76 74              1021.4R   3/ 8
OCEAN-CITY-INLET 0400   71 73  230/  4/  5 1021.1R
WACHAPREAGUE VA  0400   76 80  170/  9/ 12 1021.4R
THOMAS POINT MD  0400   78 78  180/ 14/ 15 1020.9R
GOOSES REEF MD   0400   77     200/ 12/ 14 1020.9R
COVE POINT MD    0400   76     200/ 12/ 13 1020.7R
SOLOMONS ISLAND  0400      80                N/A
BISHOPS HEAD MD  0400   76 80  170/ 11/ 12 1020.5S
PINEY POINT MD   0400          190/  7/  8   N/A
POTOMAC MD       0400   77     190/ 10/ 12 1020.1S
CAMBRIDGE MD     0400   75 78  170/  4/  7 1020.4R
LEWISETTA VA     0400   75 79  200/  7/  8 1020.7R
RAPPAHANNOCK LGT 0400          160/ 13/ 15 1021.8R
STINGRAY PT      0400   78     180/ 14/ 17 1021.5R
YORK RVR RNG VA  0400   77     180/ 13/ 15 1020.7R
YORKTOWN VA      0400   75 79  160/  4/  5 1020.9R
JAMESTOWN VA     0400   74     180/  8/ 12   N/A
DOMINION TERM VA 0400   76     160/ 10/ 12 1021.2R
KIPTOPEKE VA     0400      81  160/ 11/ 12   N/A
CHES BAY BRIDGE  0400   76 75  140/ 10/ 12 1020.6F
CAPE HENRY VA    0400   76     150/ 11/ 13 1020.0S
WILLOUBY STN VA  0400          160/ 10/ 11 1020.4R
S CRANEY ISL VA  0400          200/  5/  8 1021.2R
CAPE HENRY BUOY  0300      76                N/A     3/ 7
1ST LANDING BUOY 0400   77     160/ 12/ 12 1020.8S
CAPE CHARLES BUO 0400      75                N/A     3/ 7
OFFSHORE WE BUOY 0300      78                N/A     3/ 7
64NM E OF VA BCH 0400   77 78  120/ 12/ 14 1021.5R   2/ 7   2/ 7
DUCK PIER NC     0400   77 76  120/ 12/ 14 1020.7S
44056 DUCK FRF   0300                        N/A     3/ 6
OREGON INLET NC  0400   78 79   90/  7/  9 1021.3S
HATTERAS NC      0400   79 80  100/  8/ 13 1021.5R
DIAMOND SHLS NC  0400          VRB 16/ 19  1020.5F   4/ 6   2/ 8
CAPE LOOKOUT NC  0300   80      90/ 16/ 18 1020.0S
$$


USA.gov is the U.S. government's official web portal to all federal, state and local government web resources and services.